Find Starlink 34251

NORAD ID: 64205 Int'l Des: 2025-117 Owner: SPXS Country: US Constellation: starlink operational
LEOCIRCULAR

Current View

Loading 3D Globe...

About Starlink 34251

Description loading...

Upcoming Passes

Passes for default location (London). Set your location on the main map for personalized predictions.

Altitude History

Loading altitude history...

Two-Line Element Set

1 64205U 25117C 26151.04033414 .00029349 00000-0 87624-3 0 9994
2 64205 53.1608 17.1143 0001128 109.9367 250.1757 15.34404427 57133
Epoch: May 31, 2026 • Age: 14 hours

Current Status

Altitude 476.1 km
Velocity 7.63 km/s
Sub-Earth Point -39.10°S, 134.14°W
Launch Date May 31, 2025
Age 0.9 years
Type internet

Technical Details

Classification Payload
Mass 575.00 kg
Dry Mass 530.00 kg
Total Mass 575.00 kg
Length 0.30 m
Diameter 4.10 m
Span 29.00 m
Shape Box + pan
Manufacturer SPXS
Bus Type Starlink V2MO
Phase Status In Orbit
Owner/State SPXS/US

Most Searched